Regional Weather Roundup
Issued by NWS Mobile, AL

Home | Current Version | Previous Version | Text Only | Print | Product List | Glossary On
Versions: 1 2 3 4 5 6 7 8 9 10 11 12 13 14 15 16 17 18 19 20 21 22 23 24 25 26 27 28 29 30 31 32 33 34 35 36 37 38 39 40 41 42 43 44 45 46 47 48 49 50
000
ASUS44 KMOB 050712
RWRMOB
REGIONAL WEATHER ROUNDUP
NATIONAL WEATHER SERVICE MOBILE AL
200 AM CDT THU MAY 05 2016

NOTE: "FAIR" INDICATES FEW OR NO CLOUDS BELOW 12,000 FEET WITH NO
      SIGNIFICANT WEATHER AND/OR OBSTRUCTIONS TO VISIBILITY.

  * THESE STATIONS ARE PART OF THE UNIVERSITY OF SOUTH ALABAMA
    MESONET AND ARE NOT UNDER NWS OR FAA QUALITY CONTROL.

ALZ061>064-050800-
COASTAL ALABAMA

CITY           SKY/WX    TMP DP  RH WIND       PRES   REMARKS
MOBILE REG APT PTCLDY    61  52  72 W5        29.83F
BROOKLEY FIELD PTCLDY    65  51  60 W7        29.83F
USA CAMPUS*    NOT AVBL
DOG RIVER*     NOT AVBL


CITY           SKY/WX    TMP DP  RH WIND       PRES   REMARKS
MOUNT VERNON*  NOT AVBL
SARALAND*      NOT AVBL
BAY MINETTE*   NOT AVBL
LOXLEY*        NOT AVBL
ROBERTSDALE*   NOT AVBL
FAIRHOPE*      NOT AVBL
ELBERTA*       NOT AVBL
FOLEY*         NOT AVBL
GRAND BAY*     NOT AVBL
DAUPHIN ISLND* NOT AVBL
BON SCOUR NWR* NOT AVBL
GULF SHORES    CLEAR     66  55  67 W8        29.82F

$$

ALZ051>060-050800-
INTERIOR SOUTHWEST AND SOUTH CENTRAL ALABAMA

CITY           SKY/WX    TMP DP  RH WIND       PRES   REMARKS
GREENVILLE     CLEAR     58  52  80 VRB3      29.80F
EVERGREEN      MOCLDY    58  53  84 CALM      29.82F
CASTLEBERRY*   NOT AVBL
ATMORE*        NOT AVBL
DIXIE*         NOT AVBL
ANDALUSIA/OPP  CLOUDY    64  52  64 NW3       29.79F
ANDALUSIA*     NOT AVBL
FLORALA APT    CLOUDY    59  51  75 CALM      29.81F
FLORALA*       NOT AVBL

$$

FLZ001>006-050800-
WESTERN FLORIDA PANHANDLE

CITY           SKY/WX    TMP DP  RH WIND       PRES   REMARKS
PENSACOLA      CLOUDY    67  51  56 W10       29.80F
NAS PENSACOLA  NOT AVBL
MILTON         CLOUDY    61  51  70 W7        29.80F
WHTNG S FIELD  CLOUDY    63  52  67 NW5       29.80


CITY           SKY/WX    TMP DP  RH WIND       PRES   REMARKS
WALNUT HILL*   NOT AVBL
JAY*           NOT AVBL
DUKE FIELD     MOCLDY    63  48  58 N14G24    29.81
CRESTVIEW      CLOUDY    64  49  57 NW8       29.82S
VALPARAISO     MOCLDY    61  52  71 NW7       29.79F
DESTIN         PTCLDY    72  54  53 W6        29.79F

$$

MSZ076-079-050800-
INTERIOR SOUTHEAST MISSISSIPPI

CITY           SKY/WX    TMP DP  RH WIND       PRES   REMARKS
LEAKESVILLE*   NOT AVBL
AGRICOLA*      NOT AVBL

$$

MARINE OBSERVATIONS

STATION/POSITION TIME  TEMP    WIND        PRES    WAVE
                       AIR SEA DIR/SP/G            HT/PER
                 (UTC) (F)     (DEG/KT/KT) (MB)    (FT/S)
PASCAGOULA       0600   70     290/  8/ 12 1010.4F
PETIT BOIS ISLND 0506   73     280/ 14/ 16 1011.8F
KATRINA CUT      0600   74     280/ 18       N/A
CEDAR POINT      0630   73     280/ 18     1009.8F
E DAUPHIN ISLAND 0600   73     260/  9/ 12 1010.5F
MIDDLE BAY LIGHT 0600   72     270/ 18     1010.2F
USCG MOBILE BAY  0600   65 74  260/  6/  8 1010.7F
STATE DOCKS      0600   67                 1010.0F
MEAHER PARK      0600   69     260/  9     1009.8F
WEEKS BAY        0500   59                   N/A
FORT MORGAN      0600   74     290/ 16/ 19 1009.9F
12 S ORANGE BCH  0650   75 75  280/ 17/ 21 1008.8F   2/ 4
PENSACOLA BAY    0600      70  280/  4/  6 1010.0F
64 S DAUPHIN ISL 0600   74 75  300/ 16/ 17 1011.5F

$$

SELECTED LOCATIONS ACROSS THE REGION

CITY           SKY/WX    TMP DP  RH WIND       PRES   REMARKS
NEW ORLEANS    CLEAR     65  55  70 W8        29.88F
GULFPORT       CLEAR     64  50  60 W6        29.84F
PASCAGOULA AP  PTCLDY    58  54  86 SW3       29.83F
PASCAGOULA*    NOT AVBL
HATTIESBURG    PTCLDY    65  51  60 N7        29.85S
LAUREL         CLEAR     61  48  63 W5        29.85F
MERIDIAN       CLEAR     57  54  89 CALM      29.84F
JACKSON        CLEAR     61  52  72 CALM      29.86S
MONTGOMERY     CLEAR     58  54  86 NW5       29.81F
TROY           CLEAR     57  54  89 NW3       29.80F
KINSTON*       NOT AVBL
GENEVA*        NOT AVBL
ASHFORD*       NOT AVBL
DOTHAN         CLOUDY    60  51  72 NW9       29.81F
PANAMA CITY    CLEAR     58  51  78 CALM      29.78F

$$




USA.gov is the U.S. government's official web portal to all federal, state and local government web resources and services.